South St. Paul, MN

9:38 AM CST on November 23, 2017 (GMT -0600)
South Saint Paul Municipal-Fleming

Weather History for KSGS - September, 2012

Change the Weather History Date:

Saturday, September 8, 2012

  Actual Average (KSTP) Record (KSTP)
Temperature  
Mean Temperature 64 °F -  
Max Temperature 77 °F 75 °F 91 °F (2003)
Min Temperature 50 °F 54 °F 48 °F (1998)
Degree Days  
Heating Degree Days 2    
Growing Degree Days 14 (Base 50)    
Moisture  
Dew Point 45 °F    
Average Humidity 55    
Maximum Humidity 86    
Minimum Humidity 28    
Precipitation  
Precipitation 0.00 in - - ()
Sea Level Pressure  
Sea Level Pressure 29.94 in    
Wind  
Wind Speed 8 mph (NW)    
Max Wind Speed 26 mph    
Max Gust Speed 34 mph    
Visibility 10 miles    
Events      
Averages and records for this station are not official NWS values.
T = Trace of Precipitation, MM = Missing Value Source: NWS Daily Summary

Daily Weather History Graph

Daily Weather History Graph

Search for Another Location

Airport or City:

Trip Planner

Search our weather history database for the weather conditions in past years. The results will help you decide how hot, cold, wet, or windy it might be!

Date:

Astronomy

Sep. 08, 2012 Rise Set
Actual Time 6:43 AM CDT 7:35 PM CDT
Civil Twilight 6:13 AM CDT 8:04 PM CDT
Nautical Twilight 5:37 AM CDT 8:40 PM CDT
Astronomical Twilight 5:00 AM CDT 9:17 PM CDT
Moon No Moon Rise 2:44 PM CDT (9/8)
Length of Visible Light 13h 51m
Length of Day
12h 51m
Waning Gibbous, 48% of the Moon is Illuminated
Sep 8
Waning Gibbous
Sep 15
New
Sep 22
First Quarter
Sep 29
Full
Oct 8
Last Quarter

Hourly Weather History & Observations

Time (CDT) Temp. Dew Point Humidity Pressure Visibility Wind Dir Wind Speed Gust Speed Precip Events Conditions
12:12 AM 57.2 °F 45.5 °F 65% 30.03 in 10.0 mi NNW 5.8 mph - N/A   Clear
12:32 AM 56.7 °F 45.1 °F 65% 30.03 in 10.0 mi NNW 4.6 mph - N/A   Clear
12:52 AM 56.3 °F 45.1 °F 66% 30.02 in 10.0 mi NW 5.8 mph - N/A   Clear
1:12 AM 55.4 °F 45.0 °F 68% 30.02 in 10.0 mi NW 3.5 mph - N/A   Clear
1:32 AM 55.6 °F 45.3 °F 68% 30.02 in 10.0 mi Calm Calm - N/A   Clear
1:52 AM 55.2 °F 45.1 °F 69% 30.01 in 10.0 mi Calm Calm - N/A   Clear
2:12 AM 54.7 °F 45.3 °F 71% 30.01 in 10.0 mi WNW 5.8 mph - N/A   Clear
2:32 AM 54.7 °F 45.5 °F 71% 30.01 in 10.0 mi WNW 3.5 mph - N/A   Clear
2:52 AM 54.0 °F 45.1 °F 72% 30.01 in 10.0 mi Calm Calm - N/A   Clear
3:12 AM 53.6 °F 45.1 °F 73% 30.01 in 10.0 mi Calm Calm - N/A   Clear
3:32 AM 52.3 °F 45.0 °F 76% 30.02 in 10.0 mi West 3.5 mph - N/A   Clear
3:52 AM 52.7 °F 45.1 °F 75% 30.02 in 10.0 mi Calm Calm - N/A   Clear
4:12 AM 52.9 °F 45.7 °F 77% 30.02 in 10.0 mi Calm Calm - N/A   Clear
4:32 AM 52.5 °F 45.5 °F 77% 30.02 in 10.0 mi Calm Calm - N/A   Clear
4:52 AM 52.0 °F 45.9 °F 80% 30.01 in 10.0 mi Calm Calm - N/A   Clear
5:12 AM 51.4 °F 45.7 °F 81% 30.01 in 10.0 mi Calm Calm - N/A   Clear
5:32 AM 51.8 °F 46.0 °F 81% 30.00 in 10.0 mi Calm Calm - N/A   Clear
5:52 AM 51.1 °F 45.7 °F 82% 30.00 in 10.0 mi West 3.5 mph - N/A   Clear
6:12 AM 51.1 °F 46.0 °F 83% 30.00 in 10.0 mi Calm Calm - N/A   Clear
6:32 AM 50.7 °F 45.7 °F 83% 30.00 in 10.0 mi West 3.5 mph - N/A   Clear
6:52 AM 50.4 °F 46.4 °F 86% 30.00 in 10.0 mi West 3.5 mph - N/A   Clear
7:12 AM 50.7 °F 46.6 °F 86% 30.00 in 10.0 mi Calm Calm - N/A   Clear
7:32 AM 51.3 °F 47.1 °F 86% 29.99 in 10.0 mi Calm Calm - N/A   Clear
7:52 AM 52.9 °F 47.3 °F 81% 29.99 in 10.0 mi West 5.8 mph - N/A   Clear
8:12 AM 54.7 °F 47.3 °F 76% 29.99 in 10.0 mi West 8.1 mph - N/A   Clear
8:32 AM 56.3 °F 46.8 °F 70% 29.98 in 10.0 mi West 8.1 mph - N/A   Clear
8:52 AM 58.1 °F 46.8 °F 66% 29.98 in 10.0 mi West 10.4 mph - N/A   Clear
9:12 AM 59.0 °F 46.2 °F 63% 29.97 in 10.0 mi WSW 9.2 mph - N/A   Clear
9:32 AM 60.8 °F 45.9 °F 58% 29.96 in 10.0 mi West 11.5 mph - N/A   Clear
9:52 AM 62.1 °F 45.7 °F 55% 29.95 in 10.0 mi West 10.4 mph - N/A   Clear
10:12 AM 63.1 °F 45.7 °F 53% 29.95 in 10.0 mi West 9.2 mph - N/A   Clear
10:32 AM 64.8 °F 45.3 °F 49% 29.93 in 10.0 mi West 10.4 mph - N/A   Clear
10:52 AM 66.2 °F 44.8 °F 46% 29.92 in 10.0 mi West 11.5 mph 19.6 mph N/A   Clear
11:12 AM 66.7 °F 45.3 °F 46% 29.91 in 10.0 mi WSW 12.7 mph - N/A   Clear
11:32 AM 68.9 °F 45.0 °F 42% 29.90 in 10.0 mi West 12.7 mph 19.6 mph N/A   Clear
11:52 AM 69.6 °F 44.6 °F 41% 29.88 in 10.0 mi SW 13.8 mph - N/A   Clear
12:12 PM 71.1 °F 44.1 °F 38% 29.87 in 10.0 mi West 11.5 mph 18.4 mph N/A   Clear
12:32 PM 72.3 °F 44.1 °F 36% 29.85 in 10.0 mi WSW 15.0 mph 24.2 mph N/A   Clear
12:52 PM 74.1 °F 43.5 °F 33% 29.84 in 10.0 mi WSW 13.8 mph 23.0 mph N/A   Clear
1:12 PM 74.3 °F 43.3 °F 33% 29.82 in 10.0 mi WSW 18.4 mph 26.5 mph N/A   Clear
1:32 PM 75.2 °F 43.2 °F 32% 29.81 in 10.0 mi West 17.3 mph 24.2 mph N/A   Clear
1:52 PM 75.7 °F 42.6 °F 31% 29.80 in 10.0 mi West 17.3 mph 25.3 mph N/A   Clear
2:12 PM 76.8 °F 42.8 °F 30% 29.80 in 10.0 mi West 15.0 mph 24.2 mph N/A   Clear
2:32 PM 76.5 °F 42.8 °F 30% 29.80 in 10.0 mi WNW 20.7 mph 26.5 mph N/A   Scattered Clouds
2:52 PM 77.2 °F 42.3 °F 29% 29.80 in 10.0 mi WNW 23.0 mph 31.1 mph N/A   Scattered Clouds
3:12 PM 77.4 °F 43.0 °F 29% 29.80 in 10.0 mi NW 17.3 mph 27.6 mph N/A   Clear
3:32 PM 75.4 °F 43.5 °F 32% 29.80 in 10.0 mi NW 15.0 mph 28.8 mph N/A   Scattered Clouds
3:52 PM 76.6 °F 41.2 °F 28% 29.81 in 10.0 mi NNW 26.5 mph 34.5 mph N/A   Scattered Clouds
4:12 PM 74.8 °F 40.8 °F 29% 29.82 in 10.0 mi NW 19.6 mph 31.1 mph N/A   Scattered Clouds
4:32 PM 74.8 °F 42.1 °F 31% 29.83 in 10.0 mi North 19.6 mph 31.1 mph N/A   Scattered Clouds
4:52 PM 73.0 °F 41.7 °F 32% 29.85 in 10.0 mi North 23.0 mph 32.2 mph N/A   Scattered Clouds
5:12 PM 71.6 °F 42.3 °F 35% 29.86 in 10.0 mi North 9.2 mph 29.9 mph N/A   Mostly Cloudy
5:32 PM 70.5 °F 42.8 °F 37% 29.87 in 10.0 mi North 16.1 mph 21.9 mph N/A   Scattered Clouds
5:52 PM 68.9 °F 41.0 °F 36% 29.89 in 10.0 mi North 18.4 mph 32.2 mph N/A   Scattered Clouds
6:12 PM 68.0 °F 40.8 °F 37% 29.89 in 10.0 mi North 21.9 mph 26.5 mph N/A   Scattered Clouds
6:32 PM 67.1 °F 42.1 °F 40% 29.90 in 10.0 mi NNW 11.5 mph 23.0 mph N/A   Clear
6:52 PM 66.9 °F 41.4 °F 39% 29.91 in 10.0 mi NNW 12.7 mph 26.5 mph N/A   Scattered Clouds
7:12 PM 66.2 °F 42.6 °F 42% 29.92 in 10.0 mi North 12.7 mph 27.6 mph N/A   Mostly Cloudy
7:32 PM 65.7 °F 42.8 °F 43% 29.93 in 10.0 mi NNW 15.0 mph 20.7 mph N/A   Overcast
7:52 PM 65.5 °F 43.2 °F 44% 29.94 in 10.0 mi North 12.7 mph 20.7 mph N/A   Overcast
8:12 PM 65.3 °F 43.9 °F 46% 29.95 in 10.0 mi NNW 11.5 mph 19.6 mph N/A   Overcast
8:32 PM 65.3 °F 44.6 °F 47% 29.96 in 10.0 mi North 11.5 mph 20.7 mph N/A   Overcast
8:52 PM 64.4 °F 45.0 °F 49% 29.97 in 10.0 mi NNW 17.3 mph 24.2 mph N/A   Mostly Cloudy
9:12 PM 63.5 °F 45.7 °F 52% 29.98 in 10.0 mi North 16.1 mph 27.6 mph N/A   Mostly Cloudy
9:32 PM 63.3 °F 46.2 °F 54% 29.98 in 10.0 mi NNW 11.5 mph 21.9 mph N/A   Overcast
10:12 PM 61.7 °F 47.3 °F 59% 30.00 in 10.0 mi North 13.8 mph 20.7 mph N/A   Scattered Clouds
10:32 PM 61.2 °F 47.8 °F 62% 30.00 in 10.0 mi North 15.0 mph 20.7 mph N/A   Clear
10:52 PM 61.0 °F 48.2 °F 63% 30.02 in 10.0 mi NNW 11.5 mph 18.4 mph N/A   Clear
11:12 PM 60.4 °F 47.8 °F 63% 30.03 in 10.0 mi North 11.5 mph 20.7 mph N/A   Clear
11:37 PM 59.9 °F 48.2 °F 65% 30.03 in 10.0 mi North 9.2 mph - N/A   Scattered Clouds
11:52 PM 59.9 °F 48.2 °F 65% 30.03 in 10.0 mi North 11.5 mph 17.3 mph N/A   Scattered Clouds